GW5693 Weather Reports


time (UTC)temp
C
wind
direction
speed
KPH
gust
KPH
rain 1hr
cm
rain 24hr
cm
rain mn
cm
humidity
%
barometer
mb
20260508002306 13 211 0.0 1.6 0.00 0.30 0.20 81 1010.6
20260508001804 13 201 0.0 1.6 0.00 0.30 0.20 81 1010.5
20260508001304 13 153 0.0 0.0 0.00 0.30 0.20 80 1010.5
20260508000804 14 153 0.0 0.0 0.00 0.30 0.20 78 1010.3
20260508000305 15 153 0.0 0.0 0.00 0.30 0.20 76 1010.2
20260507235804 15 162 0.0 0.0 0.00 0.30 0.20 75 1010.1
20260507235306 15 162 0.0 1.6 0.00 0.30 0.20 75 1010.0
20260507234804 16 296 0.0 1.6 0.00 0.30 0.20 74 1009.9
20260507234304 16 218 0.0 1.6 0.00 0.30 0.20 74 1009.8
20260507233803 16 290 0.0 1.6 0.00 0.30 0.20 74 1009.8
20260507233303 16 312 0.0 1.6 0.00 0.30 0.20 74 1009.8
20260507232803 16 253 0.0 4.8 0.00 0.30 0.20 73 1009.7
20260507231803 16 269 1.6 4.8 0.00 0.30 0.20 75 1009.5
20260507231303 16 307 0.0 1.6 0.00 0.30 0.20 76 1009.5
20260507230804 15 12 1.6 8.0 0.00 0.30 0.20 76 1009.5
20260507230303 15 94 0.0 1.6 0.00 0.30 0.20 78 1009.4
20260507225306 15 17 0.0 1.6 0.00 0.30 0.20 76 1009.3
20260507224803 15 237 0.0 1.6 0.00 0.30 0.20 76 1009.2
20260507223304 15 142 0.0 1.6 0.00 0.30 0.20 75 1009.1
20260507222803 15 89 1.6 4.8 0.00 0.30 0.20 73 1009.0
20260507222306 16 93 1.6 4.8 0.00 0.30 0.20 74 1008.8
20260507221804 16 102 1.6 3.2 0.00 0.30 0.20 73 1008.8
20260507221304 16 150 0.0 0.0 0.00 0.30 0.20 72 1008.8
20260507220803 16 240 0.0 3.2 0.00 0.30 0.20 71 1008.7
20260507220304 16 286 1.6 4.8 0.00 0.30 0.20 70 1008.6
20260507215804 17 162 1.6 4.8 0.00 0.30 0.20 68 1008.6
20260507215306 18 77 1.6 3.2 0.00 0.30 0.20 66 1008.7
20260507214804 18 105 1.6 4.8 0.00 0.30 0.20 63 1008.6
20260507214304 19 283 1.6 8.0 0.00 0.30 0.20 60 1008.6
20260507213805 19 96 1.6 14.5 0.00 0.30 0.20 60 1008.5
20260507213304 19 49 1.6 12.9 0.00 0.30 0.20 63 1008.6
20260507212804 19 325 1.6 4.8 0.00 0.30 0.20 62 1008.6
20260507211804 20 323 0.0 8.0 0.00 0.30 0.20 60 1008.5
20260507211303 20 18 1.6 4.8 0.00 0.30 0.20 58 1008.5
20260507210804 20 101 1.6 4.8 0.00 0.30 0.20 59 1008.5
20260507210303 20 190 1.6 1.6 0.00 0.30 0.20 61 1008.6
20260507205804 20 244 3.2 4.8 0.00 0.30 0.20 59 1008.4
20260507205306 19 192 1.6 4.8 0.00 0.30 0.20 64 1008.4
20260507204804 18 281 1.6 4.8 0.00 0.30 0.20 61 1008.4
20260507204303 18 224 0.0 4.8 0.00 0.30 0.20 65 1008.5
20260507203804 17 328 1.6 9.7 0.00 0.30 0.20 67 1008.6
20260507203303 17 208 0.0 1.6 0.00 0.30 0.20 64 1008.6
20260507202803 17 221 0.0 0.0 0.00 0.30 0.20 64 1008.6
20260507201804 17 190 0.0 3.2 0.00 0.30 0.20 67 1008.7
20260507201304 17 321 3.2 4.8 0.00 0.30 0.20 67 1008.8
20260507200804 17 225 0.0 3.2 0.00 0.30 0.20 67 1008.9
20260507200304 17 186 3.2 4.8 0.00 0.30 0.20 66 1009.0
20260507195804 17 207 0.0 4.8 0.00 0.30 0.20 68 1009.0
20260507195305 17 314 1.6 3.2 0.00 0.30 0.20 69 1009.0
20260507194804 17 95 1.6 3.2 0.00 0.30 0.20 68 1009.2
20260507194303 17 302 1.6 3.2 0.00 0.30 0.20 68 1009.3
20260507193303 17 216 0.0 1.6 0.00 0.30 0.20 69 1009.5
20260507192804 17 170 0.0 1.6 0.00 0.30 0.20 69 1009.4
20260507192306 17 244 0.0 1.6 0.00 0.30 0.20 71 1009.6
20260507191803 16 216 0.0 1.6 0.00 0.30 0.20 74 1009.8
20260507191303 16 248 0.0 1.6 0.00 0.30 0.20 75 1009.7
20260507185804 15 226 0.0 3.2 0.03 0.30 0.20 74 1010.0
20260507185305 15 68 0.0 3.2 0.03 0.30 0.20 77 1010.0
20260507184804 15 95 0.0 1.6 0.03 0.30 0.20 79 1010.1
20260507184304 14 16 0.0 1.6 0.03 0.30 0.20 81 1009.9
20260507183804 13 16 0.0 3.2 0.03 0.30 0.20 81 1010.0
20260507183305 13 17 0.0 3.2 0.03 0.30 0.20 80 1010.1
20260507182307 13 12 0.0 0.0 0.03 0.30 0.20 81 1010.3
20260507181804 13 12 0.0 1.6 0.03 0.30 0.20 80 1010.3
20260507181304 13 318 0.0 1.6 0.03 0.30 0.20 79 1010.3
20260507180804 13 283 0.0 1.6 0.03 0.30 0.20 79 1010.3
20260507180304 14 215 0.0 1.6 0.05 0.30 0.20 78 1010.4
20260507175804 14 92 0.0 1.6 0.03 0.28 0.18 78 1010.3
20260507175307 14 23 0.0 1.6 0.03 0.28 0.18 79 1010.3
20260507174804 14 19 0.0 1.6 0.03 0.28 0.18 80 1010.4
20260507174304 13 19 0.0 1.6 0.03 0.28 0.18 80 1010.5
20260507173804 13 18 0.0 1.6 0.03 0.28 0.18 80 1010.6
20260507173303 13 19 0.0 1.6 0.03 0.28 0.18 82 1010.6
20260507172804 13 19 0.0 1.6 0.03 0.28 0.18 82 1010.6
20260507171303 13 9 0.0 1.6 0.03 0.28 0.18 82 1010.8
20260507170804 13 9 0.0 1.6 0.03 0.28 0.18 82 1010.9
20260507165804 13 37 0.0 1.6 0.00 0.25 0.15 79 1011.2
20260507165306 13 224 0.0 1.6 0.00 0.25 0.15 80 1011.5
20260507164803 13 280 0.0 1.6 0.00 0.25 0.15 81 1011.4
20260507164303 13 294 0.0 1.6 0.00 0.25 0.15 81 1011.3
20260507163804 13 11 0.0 1.6 0.00 0.25 0.15 81 1011.3
20260507163304 13 232 0.0 1.6 0.00 0.25 0.15 82 1011.5
20260507162306 12 252 0.0 0.0 0.00 0.25 0.15 82 1011.7
20260507161804 12 252 0.0 1.6 0.00 0.25 0.15 82 1011.8
20260507161303 12 247 1.6 1.6 0.00 0.25 0.15 81 1011.9
20260507160803 12 335 0.0 0.0 0.00 0.25 0.15 83 1011.8
20260507160304 12 335 1.6 3.2 0.03 0.25 0.15 81 1011.7
20260507155805 12 105 0.0 1.6 0.05 0.25 0.15 82 1011.9
20260507155306 12 162 0.0 3.2 0.08 0.25 0.15 83 1011.9
20260507154804 12 248 1.6 3.2 0.08 0.25 0.15 85 1011.9
20260507154304 12 5 1.6 4.8 0.08 0.25 0.15 84 1012.0
20260507153803 12 72 0.0 3.2 0.08 0.25 0.15 84 1012.1
20260507153304 12 150 1.6 4.8 0.10 0.25 0.15 84 1012.1
20260507152804 12 117 0.0 1.6 0.10 0.25 0.15 85 1012.1
20260507152306 12 148 0.0 1.6 0.10 0.25 0.15 84 1012.2
20260507151804 12 219 0.0 4.8 0.10 0.25 0.15 84 1012.3
20260507151304 12 116 0.0 1.6 0.10 0.25 0.15 85 1012.3
20260507150803 12 198 0.0 0.0 0.13 0.25 0.15 85 1012.2
20260507150304 12 228 0.0 1.6 0.10 0.23 0.13 86 1012.0
20260507145804 11 208 0.0 1.6 0.08 0.20 0.10 84 1012.2
20260507145306 12 208 0.0 1.6 0.05 0.18 0.08 84 1012.5
20260507144803 12 207 0.0 1.6 0.05 0.18 0.08 84 1012.1
20260507144304 12 207 0.0 1.6 0.05 0.18 0.08 83 1011.9
20260507143804 12 238 0.0 1.6 0.05 0.18 0.08 83 1011.9
20260507143305 12 115 0.0 1.6 0.03 0.15 0.05 82 1012.0
20260507142805 12 327 0.0 3.2 0.03 0.15 0.05 82 1012.2
20260507142306 12 330 1.6 4.8 0.03 0.15 0.05 81 1012.2
20260507141804 12 70 0.0 0.0 0.03 0.15 0.05 80 1012.3
20260507141303 12 89 0.0 3.2 0.03 0.15 0.05 80 1012.3
20260507140804 12 217 0.0 1.6 0.00 0.13 0.03 78 1012.5
20260507140304 12 201 0.0 1.6 0.00 0.13 0.03 79 1012.6
20260507135804 12 250 0.0 1.6 0.00 0.13 0.03 79 1012.6
20260507135306 12 230 1.6 3.2 0.00 0.13 0.03 78 1012.5
20260507134304 12 151 0.0 1.6 0.00 0.13 0.03 78 1012.6
20260507133804 12 149 0.0 0.0 0.00 0.13 0.03 78 1012.5
20260507133304 12 149 0.0 0.0 0.00 0.13 0.03 78 1012.5
20260507132805 12 198 0.0 1.6 0.00 0.13 0.03 78 1012.6
20260507131804 12 238 0.0 0.0 0.00 0.13 0.03 79 1012.6
20260507131304 12 238 0.0 1.6 0.00 0.15 0.03 79 1012.5
20260507130804 12 238 0.0 3.2 0.00 0.15 0.03 78 1012.4
20260507130304 12 124 0.0 3.2 0.00 0.15 0.03 78 1012.4
20260507125804 12 108 0.0 3.2 0.00 0.15 0.03 79 1012.5
20260507125306 12 108 0.0 3.2 0.00 0.15 0.03 79 1012.5
20260507124804 12 240 0.0 0.0 0.00 0.15 0.03 80 1012.4
20260507124304 12 240 0.0 1.6 0.00 0.15 0.03 80 1012.4
20260507123803 12 281 0.0 1.6 0.00 0.15 0.03 80 1012.3
20260507123304 12 296 0.0 1.6 0.00 0.15 0.03 81 1012.2
20260507122803 12 92 1.6 3.2 0.00 0.18 0.03 81 1012.2
20260507122307 12 322 0.0 1.6 0.00 0.18 0.03 81 1012.3
20260507121804 12 288 1.6 3.2 0.00 0.20 0.03 81 1012.2
20260507121304 12 238 1.6 3.2 0.00 0.20 0.03 82 1012.3
20260507120804 12 132 0.0 1.6 0.00 0.20 0.03 82 1012.3
20260507120304 12 219 1.6 3.2 0.00 0.20 0.03 83 1012.3
20260507115804 12 242 0.0 3.2 0.00 0.20 0.03 83 1012.2
20260507115307 12 241 1.6 3.2 0.00 0.20 0.03 83 1012.2
20260507114804 12 225 0.0 1.6 0.00 0.23 0.03 84 1012.0
20260507113803 12 224 1.6 1.6 0.00 0.23 0.03 84 1012.2
20260507113304 12 257 1.6 3.2 0.00 0.23 0.03 84 1012.1
20260507112803 12 14 1.6 4.8 0.00 0.23 0.03 84 1012.0
20260507112307 12 32 0.0 1.6 0.00 0.23 0.03 85 1011.9
20260507111803 12 32 0.0 1.6 0.00 0.23 0.03 85 1011.8
20260507111304 12 74 0.0 3.2 0.00 0.23 0.03 85 1011.8
20260507110803 12 75 0.0 1.6 0.00 0.23 0.03 85 1011.8
20260507110303 12 19 0.0 3.2 0.00 0.23 0.03 85 1011.8
20260507105804 12 262 0.0 3.2 0.00 0.23 0.03 85 1011.7
20260507105306 12 358 1.6 4.8 0.00 0.23 0.03 85 1011.4
20260507104804 12 141 0.0 1.6 0.00 0.23 0.03 85 1011.6
20260507104303 12 205 1.6 3.2 0.00 0.23 0.03 85 1011.4
20260507103803 12 207 1.6 4.8 0.00 0.23 0.03 86 1011.3
20260507103303 12 257 0.0 3.2 0.00 0.23 0.03 86 1011.3
20260507102803 12 253 0.0 0.0 0.00 0.23 0.03 86 1011.2
20260507102306 12 253 0.0 1.6 0.00 0.23 0.03 86 1011.4
20260507101303 12 159 0.0 1.6 0.00 0.23 0.03 86 1011.1
20260507100804 12 128 0.0 1.6 0.00 0.23 0.03 86 1011.1
20260507100303 12 240 0.0 1.6 0.00 0.23 0.03 86 1011.2
20260507095803 12 273 0.0 1.6 0.00 0.23 0.03 86 1011.2
20260507095305 12 273 0.0 1.6 0.00 0.23 0.03 86 1011.2
20260507092306 13 124 0.0 1.6 0.00 0.23 0.03 87 1010.9
20260507091803 13 188 0.0 1.6 0.00 0.23 0.03 87 1010.7
20260507091303 13 266 1.6 3.2 0.00 0.23 0.03 87 1011.0
20260507090803 13 238 0.0 1.6 0.00 0.23 0.03 87 1011.0
20260507090303 13 239 0.0 3.2 0.00 0.23 0.03 87 1011.0
20260507085803 13 84 1.6 8.0 0.00 0.23 0.03 87 1010.9
20260507085306 13 98 1.6 3.2 0.00 0.23 0.03 87 1011.0
20260507084303 13 1 1.6 3.2 0.00 0.23 0.03 87 1010.8
20260507083804 13 245 1.6 3.2 0.00 0.23 0.03 87 1010.6
20260507083304 13 317 0.0 8.0 0.00 0.23 0.03 87 1010.5
20260507082803 13 96 1.6 3.2 0.00 0.23 0.03 86 1010.4
20260507082306 14 127 1.6 4.8 0.00 0.23 0.03 86 1010.4
20260507081804 14 7 1.6 3.2 0.00 0.23 0.03 86 1010.4
20260507081303 14 47 1.6 3.2 0.00 0.23 0.03 86 1010.5
20260507080803 15 68 0.0 3.2 0.00 0.23 0.03 86 1010.5
20260507080303 15 35 0.0 4.8 0.00 0.23 0.03 85 1010.6
20260507075804 15 50 1.6 9.7 0.00 0.23 0.03 85 1010.4
20260507075307 15 66 3.2 8.0 0.00 0.23 0.03 84 1010.3
20260507074304 16 79 1.6 1.6 0.00 0.23 0.03 84 1010.2
20260507073804 16 357 1.6 3.2 0.00 0.23 0.03 83 1009.9
20260507073303 16 276 0.0 1.6 0.00 0.23 0.03 83 1010.2
20260507072805 16 234 0.0 3.2 0.00 0.23 0.03 83 1010.1
20260507072306 16 276 1.6 4.8 0.00 0.23 0.03 84 1010.2
20260507071803 16 263 1.6 3.2 0.00 0.23 0.03 84 1010.1
20260507071304 16 294 0.0 1.6 0.00 0.23 0.03 84 1010.1
20260507070803 16 260 0.0 1.6 0.00 0.23 0.03 84 1009.8
20260507070304 16 260 0.0 0.0 0.00 0.23 0.03 83 1009.8
20260507065804 16 260 0.0 1.6 0.00 0.23 0.03 83 1009.8
20260507064303 16 255 0.0 4.8 0.00 0.23 0.03 83 1009.7
20260507063803 16 284 0.0 4.8 0.00 0.23 0.03 83 1009.6
20260507063303 16 213 0.0 3.2 0.00 0.23 0.03 83 1009.7
20260507062803 16 254 3.2 4.8 0.00 0.23 0.03 84 1009.6
20260507062306 16 257 1.6 3.2 0.00 0.23 0.03 85 1009.8
20260507061803 16 247 1.6 3.2 0.00 0.23 0.03 85 1010.0
20260507061303 17 272 0.0 1.6 0.00 0.23 0.03 86 1010.1
20260507060803 17 238 0.0 1.6 0.00 0.23 0.03 86 1010.1
20260507055804 17 249 1.6 4.8 0.00 0.23 0.03 87 1010.1
20260507055306 17 265 1.6 3.2 0.00 0.23 0.03 89 1010.2
20260507054304 17 258 0.0 1.6 0.00 0.23 0.03 89 1010.3
20260507053804 17 258 0.0 1.6 0.00 0.23 0.03 89 1010.2
20260507053303 17 259 0.0 1.6 0.00 0.23 0.03 89 1010.3
20260507052803 17 253 0.0 1.6 0.00 0.23 0.03 89 1010.3
20260507052306 17 266 0.0 1.6 0.00 0.23 0.03 89 1010.2
20260507051804 17 266 0.0 1.6 0.00 0.23 0.03 89 1010.2
20260507051304 17 236 0.0 1.6 0.00 0.23 0.03 89 1009.9
20260507050304 17 305 0.0 1.6 0.03 0.23 0.03 89 1009.5
20260507044305 17 283 0.0 0.0 0.05 0.23 0.03 88 1008.3
20260507043804 17 283 0.0 1.6 0.05 0.23 0.03 88 1008.5
20260507043304 17 283 0.0 1.6 0.05 0.23 0.03 88 1008.8
20260507042804 17 269 0.0 3.2 0.05 0.23 0.03 88 1009.4
20260507041804 18 252 1.6 3.2 0.05 0.23 0.03 88 1009.7
20260507041303 18 285 1.6 4.8 0.05 0.23 0.03 88 1009.8
20260507040804 18 226 0.0 1.6 0.05 0.20 0.00 88 1009.5
20260507035804 18 211 1.6 3.2 0.03 0.18 0.18 87 1009.9
20260507035306 18 172 0.0 3.2 0.03 0.18 0.18 87 1009.8
20260507034304 18 288 1.6 4.8 0.03 0.18 0.18 87 1009.8
20260507033803 18 252 0.0 4.8 0.05 0.18 0.18 86 1009.7
20260507033305 18 345 1.6 3.2 0.08 0.18 0.18 86 1009.9
20260507032803 18 239 1.6 4.8 0.08 0.18 0.18 86 1009.9
20260507032305 18 236 0.0 1.6 0.08 0.18 0.18 86 1010.0
20260507031804 18 240 1.6 3.2 0.08 0.18 0.18 86 1010.4
20260507031303 18 255 0.0 3.2 0.08 0.18 0.18 85 1010.2
20260507030804 18 232 0.0 1.6 0.05 0.15 0.15 85 1010.1
20260507030303 18 232 0.0 3.2 0.05 0.15 0.15 85 1010.0
20260507025306 19 13 0.0 1.6 0.05 0.15 0.15 84 1010.1
20260507024804 19 218 0.0 1.6 0.05 0.15 0.15 83 1009.5
20260507024303 19 245 1.6 3.2 0.05 0.15 0.15 82 1009.8
20260507023803 19 250 0.0 3.2 0.03 0.13 0.13 81 1009.8
20260507023304 19 252 1.6 4.8 0.00 0.10 0.10 81 1009.6
20260507022803 20 233 0.0 1.6 0.00 0.10 0.10 80 1009.7
20260507021804 20 270 0.0 1.6 0.00 0.10 0.10 78 1009.7
20260507021303 20 37 0.0 1.6 0.00 0.10 0.10 78 1009.4
20260507020803 20 70 0.0 1.6 0.00 0.10 0.10 78 1009.3
20260507015805 20 249 0.0 1.6 0.00 0.10 0.10 77 1009.0
20260507015306 20 249 0.0 1.6 0.00 0.10 0.10 77 1009.0
20260507014803 20 217 0.0 1.6 0.00 0.10 0.10 76 1008.7
20260507014304 20 217 0.0 0.0 0.00 0.10 0.10 76 1008.4
20260507013804 20 217 0.0 0.0 0.00 0.10 0.10 75 1008.5
20260507012804 20 223 0.0 1.6 0.00 0.10 0.10 75 1009.0
20260507012306 20 219 0.0 1.6 0.00 0.10 0.10 75 1009.0
20260507011804 20 219 0.0 1.6 0.00 0.10 0.10 75 1009.0
20260507011303 20 293 0.0 1.6 0.00 0.10 0.10 75 1009.0
20260507010803 20 337 0.0 0.0 0.00 0.10 0.10 75 1009.1
20260507010303 21 337 0.0 0.0 0.00 0.10 0.10 74 1009.1
20260507005305 21 326 0.0 0.0 0.00 0.10 0.10 74 1009.3
20260507004804 21 326 0.0 0.0 0.00 0.10 0.10 74 1009.3
20260507004304 21 326 0.0 0.0 0.00 0.10 0.10 73 1009.3
20260507003804 21 326 0.0 0.0 0.00 0.10 0.10 73 1009.1
20260507003304 21 326 0.0 1.6 0.00 0.10 0.10 73 1009.2
20260507002804 21 330 0.0 1.6 0.00 0.10 0.10 73 1009.3